Tracking 29892 objects as of 21-Nov-2024
HD Live streaming from Space Station
objects crossing your sky now

STARLINK-30937

Track STARLINK-30937 now!
10-day predictions
STARLINK-30937 is classified as:


NORAD ID: 58392
Int'l Code: 2023-178U
Perigee: 481.5 km
Apogee: 483.1 km
Inclination: 53.2 °
Period: 94.1 minutes
Semi major axis: 6853 km
RCS: Unknown
Launch date: November 20, 2023
Source: United States (US)
Launch site: AIR FORCE WESTERN TEST RANGE (AFWTR)
Your satellite tracking list
Your tracking list is empty




NASA's NSSDC Master Catalog

Two Line Element Set (TLE):
1 58392U 23178U   24325.22352295  .00002892  00000-0  10969-3 0  9993
2 58392  53.1588  45.1732 0001151 108.9781 251.1344 15.30209508 57244
Source of the keplerian elements: AFSPC